Location: DARK SKY Beskydy - Park tmavé oblohy, www.darkskybeskydy.cz
(49.4926°N, 18.5016°E)
Time: 20:46:34
(UTC+01:00)

X-37B - Visible Passes

Search period start: 24 March 2023 00:00
Search period end: 03 April 2023 01:00
Orbit: 277 x 277 km, 45.0° (Epoch: 01 November)

Date Brightness Start Highest point End Pass type
(mag) Time Alt. Az. Time Alt. Az. Time Alt. Az.
24 Mar 1.8 19:08:04 10° WSW 19:10:02 21° SSW 19:11:15 15° SSE visible
25 Mar 2.2 19:08:53 10° WSW 19:10:35 17° SSW 19:11:58 12° SSE visible
26 Mar 2.7 20:09:58 10° SW 20:11:06 12° SSW 20:12:14 10° S visible
